Weather History for Walla Walla, WA

Change the Weather History Date:

Wednesday, February 6, 2013

  Actual Average Record
Temperature  
Mean Temperature 46 °F -  
Max Temperature 52 °F 40 °F 63 °F (1952)
Min Temperature 41 °F 28 °F -1 °F (1989)
Degree Days  
Heating Degree Days 18    
Moisture  
Dew Point 31 °F    
Average Humidity 56    
Maximum Humidity 73    
Minimum Humidity 35    
Precipitation  
Precipitation 0.00 in - - ()
Sea Level Pressure  
Sea Level Pressure 30.04 in    
Wind  
Wind Speed 10 mph (South)    
Max Wind Speed 16 mph    
Max Gust Speed 20 mph    
Visibility 10 miles    
Events      
Averages and records for this station are not official NWS values.
T = Trace of Precipitation, MM = Missing Value Source: NWS Daily Summary

Daily Weather History Graph

Daily Weather History Graph

Search for Another Location

Airport:

Trip Planner

Search our weather history database for the weather conditions in past years. The results will help you decide how hot, cold, wet, or windy it might be!

Date:

Astronomy

Feb. 06, 2013 Rise Set
Actual Time 7:08 AM PST 5:06 PM PST
Civil Twilight 6:37 AM PST 5:37 PM PST
Nautical Twilight 6:01 AM PST 6:13 PM PST
Astronomical Twilight 5:26 AM PST 6:48 PM PST
Moon 4:03 AM PST (2/6) 1:23 PM PST (2/6)
Length of Visible Light 11h 00m
Length of Day
9h 57m
Waning Crescent, 16% of the Moon is Illuminated
Feb 6
Waning Crescent
Feb 9
New
Feb 17
First Quarter
Feb 25
Full
Mar 4
Last Quarter

Hourly Weather History & Observations

Time (PST) Temp. Windchill Dew Point Humidity Pressure Visibility Wind Dir Wind Speed Gust Speed Precip Events Conditions
12:53 AM 44.1 °F 37.4 °F 36.0 °F 73% 30.02 in 10.0 mi South 13.8 mph - N/A   Overcast
1:53 AM 44.1 °F 38.1 °F 33.1 °F 65% 30.04 in 10.0 mi SSW 11.5 mph - N/A   Overcast
2:53 AM 44.1 °F 38.1 °F 32.0 °F 63% 30.04 in 10.0 mi South 11.5 mph - N/A   Overcast
4:53 AM 43.0 °F 36.4 °F 32.0 °F 65% 30.06 in 10.0 mi South 12.7 mph - N/A   Mostly Cloudy
5:53 AM 41.0 °F 36.4 °F 30.9 °F 67% 30.07 in 10.0 mi South 6.9 mph - N/A   Partly Cloudy
6:53 AM 42.1 °F 36.6 °F 30.0 °F 62% 30.09 in 10.0 mi South 9.2 mph - N/A   Mostly Cloudy
7:53 AM 43.0 °F 38.2 °F 30.0 °F 60% 30.10 in 10.0 mi South 8.1 mph - N/A   Overcast
8:53 AM 44.1 °F 39.0 °F 30.9 °F 60% 30.11 in 10.0 mi South 9.2 mph - N/A   Overcast
9:53 AM 46.0 °F 42.5 °F 32.0 °F 58% 30.12 in 10.0 mi SSW 6.9 mph - N/A   Scattered Clouds
10:53 AM 48.9 °F - 33.1 °F 54% 30.12 in 10.0 mi SSW 9.2 mph - N/A   Overcast
11:53 AM 51.1 °F - 33.1 °F 50% 30.10 in 10.0 mi West 8.1 mph - N/A   Clear
12:53 PM 52.0 °F - 32.0 °F 47% 30.08 in 10.0 mi SW 9.2 mph - N/A   Clear
1:53 PM 51.1 °F - 33.1 °F 50% 30.07 in 10.0 mi West 9.2 mph - N/A   Mostly Cloudy
2:53 PM 52.0 °F - 30.9 °F 45% 30.06 in 10.0 mi Calm Calm - N/A   Partly Cloudy
3:53 PM 51.1 °F - 36.0 °F 56% 30.05 in 10.0 mi North 5.8 mph - N/A   Clear
4:53 PM 45.0 °F 40.6 °F 35.1 °F 68% 30.03 in 10.0 mi NE 8.1 mph - N/A   Clear
5:53 PM 42.1 °F 36.6 °F 34.0 °F 73% 30.01 in 10.0 mi ENE 9.2 mph - N/A   Clear
6:53 PM 44.1 °F 39.0 °F 33.1 °F 65% 30.00 in 10.0 mi East 9.2 mph - N/A   Mostly Cloudy
8:53 PM 46.9 °F - 27.0 °F 46% 29.96 in 10.0 mi Calm Calm - N/A   Partly Cloudy
9:53 PM 48.9 °F - 25.0 °F 39% 29.93 in 10.0 mi Variable 3.5 mph - N/A   Clear
10:53 PM 51.1 °F - 26.1 °F 38% 29.91 in 10.0 mi South 11.5 mph 19.6 mph N/A   Clear
11:53 PM 52.0 °F - 25.0 °F 35% 29.88 in 10.0 mi SSE 16.1 mph - N/A   Clear